Regional Weather Roundup
Issued by NWS

Home | Current Version | Previous Version | Text Only | Print | Product List | Glossary On
Versions: 1 2 3 4 5 6 7 8 9 10 11 12 13 14 15 16 17 18 19 20 21 22 23 24 25 26 27 28 29 30 31 32 33 34 35 36 37 38 39 40 41 42 43 44 45 46 47 48 49 50
000
ASUS43 KOAX 202210
RWRNE

WEATHER ROUNDUP FOR NEBRASKA
NATIONAL WEATHER SERVICE OMAHA NE
500 PM CDT SAT SEP 20 2014

NOTES: SATELLITE DATA IS BEING USED TO AUGMENT CLOUD COVER ABOVE
       12000 FEET.
       "FAIR" INDICATES FEW OR NO CLOUDS BELOW 12,000 FEET WITH NO
       SIGNIFICANT WEATHER AND/OR OBSTRUCTIONS TO VISIBILITY.

  * THESE STATIONS DO NOT REPORT WEATHER SUCH AS RAIN...SNOW OR FOG.

NEZ001>004-019>022-054>056-202300-
NEBRASKA PANHANDLE

CITY           SKY/WX    TMP DP  RH WIND       PRES   REMARKS
SCOTTSBLUFF    SUNNY     85  45  24 N15       30.16S
ALLIANCE       SUNNY     81  44  27 N16       30.15S
CHADRON        SUNNY     82  46  28 N10       30.14R
KIMBALL        MOSUNNY   80  45  28 N8        30.20S
SIDNEY         SUNNY     83  45  26 NE7       30.19F
$$

NEZ057>060-069>072-079>082-202300-
SOUTHWEST NEBRASKA

CITY           SKY/WX    TMP DP  RH WIND       PRES   REMARKS
NORTH PLATTE   SUNNY     83  52  34 NW14      30.06S
IMPERIAL       SUNNY     86  47  25 N14       30.11S
LEXINGTON      SUNNY     85  50  29 NW10      30.04S
MCCOOK         SUNNY     87  48  25 N9G18     30.06S
OGALLALA       SUNNY     86  49  28 NW10      30.11S
$$

NEZ005>010-023>029-035>040-094-202300-
NORTH CENTRAL NEBRASKA

CITY           SKY/WX    TMP DP  RH WIND       PRES   REMARKS
VALENTINE      SUNNY     81  42  25 N26G36    30.07S
AINSWORTH      SUNNY     79  44  28 NW20G30   30.07R
BROKEN BOW     SUNNY     86  48  26 NW14G25   30.04S
O`NEILL        SUNNY     82  50  32 NW20G29   30.00S
ORD            SUNNY     83  49  30 NW16G25   29.99S
THEDFORD       MOSUNNY   83  50  31 N15G21    30.08S
$$

NEZ041-046>049-061>064-073>077-083>087-202300-
SOUTH CENTRAL NEBRASKA

CITY           SKY/WX    TMP DP  RH WIND       PRES   REMARKS
GRAND ISLAND   SUNNY     86  52  30 N10       30.00S
AURORA         SUNNY     84  47  27 NW10      29.99S
HASTINGS       SUNNY     85  50  29 N7        30.00S
HEBRON         SUNNY     87  51  28 CALM      29.96R
HOLDREGE       SUNNY     83  49  30 N6        30.04S
KEARNEY *      SUNNY     84  52  32 NW8       30.03S
YORK           SUNNY     81  63  54 W8        29.98S
$$

NEZ011>018-030>034-042>045-202300-
NORTHEAST NEBRASKA

CITY           SKY/WX    TMP DP  RH WIND       PRES   REMARKS
NORFOLK        MOSUNNY   83  51  33 NW12G21   29.95S
ALBION         SUNNY     84  47  26 NW16      29.99R
BLAIR          SUNNY     83  53  34 NW10G16   29.93S
COLUMBUS *     SUNNY     82  55  39 NW13      29.96F
FREMONT        SUNNY     84  52  33 NW12      29.93F
TEKAMAH        SUNNY     86  57  37 W14       29.91S
WAYNE          SUNNY     82  53  36 W14G21    29.93F
$$

NEZ050>053-065>068-078-088>093-202300-
SOUTHEAST NEBRASKA

CITY           SKY/WX    TMP DP  RH WIND       PRES   REMARKS
LINCOLN        SUNNY     86  56  35 N15       29.95S
OMAHA EPPLEY   MOSUNNY   84  57  39 NW10      29.91S
BEATRICE       SUNNY     87  60  39 NW9       29.94S
FALLS CITY     SUNNY     83  70  64 W9        29.91S
NEBRASKA CITY    N/A     83  57  40 NW8       29.92S
PLATTSMOUTH    SUNNY     84  53  34 NW10G16   29.93R
$$

NEZ044-045-051>053-067-202300-
OMAHA AREA

CITY           SKY/WX    TMP DP  RH WIND       PRES   REMARKS
OMAHA EPPLEY   MOSUNNY   84  57  39 NW10      29.91S
BLAIR          SUNNY     83  53  34 NW10G16   29.93S
FREMONT        SUNNY     84  52  33 NW12      29.93F
MILLARD        SUNNY     84  58  41 NW13      29.91F
OFFUTT AFB     SUNNY     85  60  43 NW8       29.91S
PLATTSMOUTH    SUNNY     84  53  34 NW10G16   29.93R
WAHOO          FAIR      85  52  32 NW8       29.94S
$$


USA.gov is the U.S. government's official web portal to all federal, state and local government web resources and services.